This demonstration page uses our WeatherBlox Daily Observations layout. Learn more.

Hourly Observations for July 20, 2017

Temp ( °F °C ) Dew Point ( °F °C ) Humidity (%) Winds ( mph kmh ) Pressure ( in mb ) Visibility ( mi km ) Precip ( " mm )
12:54 am 00:54 Clear 85 29.4 70 21.1 61 61 SSW 14 22 29.91 1013 10 16.0934 0 0
1:54 am 01:54 Clear 83 28.3 69 20.6 63 63 S 13 20 29.91 1013 10 16.0934 0 0
2:54 am 02:54 Clear 82 27.8 69 20.6 65 65 SSW 6 9 29.92 1013 10 16.0934 0 0
3:54 am 03:54 Clear 82 27.8 69 20.6 65 65 W 9 15 29.93 1014 10 16.0934 0 0
4:54 am 04:54 Clear 81 27.2 69 20.6 67 67 WSW 3 6 29.93 1014 10 16.0934 0 0
5:54 am 05:54 Clear 75 23.9 69 20.6 82 82 S 6 9 29.94 1014 10 16.0934 0 0
6:54 am 06:54 Sunny 75 23.9 69 20.6 82 82 S 7 11 29.94 1014 10 16.0934 0 0
7:54 am 07:54 Sunny 80 26.7 69 20.6 69 69 S 8 13 29.93 1014 10 16.0934 0 0
8:54 am 08:54 Sunny 83 28.3 70 21.1 65 65 N 3 6 29.95 1014 10 16.0934 0 0
9:54 am 09:54 Sunny 85 29.4 69 20.6 59 59 N 3 6 29.95 1014 10 16.0934 0 0
10:54 am 10:54 Sunny 87 30.6 71 21.7 59 59 SW 7 11 29.95 1014 10 16.0934 0 0
11:54 am 11:54 Sunny 89 31.7 72 22.2 57 57 SSW 7 11 29.94 1014 10 16.0934 0 0
12:54 pm 12:54 Sunny 92 33.3 72 22.2 52 52 SW 6 9 29.93 1014 10 16.0934 0 0
1:54 pm 13:54 Sunny 93 33.9 72 22.2 50 50 S 5 7 29.92 1013 10 16.0934 0 0
2:54 pm 14:54 Sunny 93 33.9 74 23.3 54 54 S 7 11 29.91 1013 10 16.0934 0 0
3:54 pm 15:54 Sunny 95 35 74 23.3 51 51 SSW 10 17 29.9 1013 10 16.0934 0 0
4:54 pm 16:54 Sunny 95 35 76 24.4 54 54 SSE 8 13 29.88 1012 10 16.0934 0 0
5:54 pm 17:54 Sunny 95 35 74 23.3 51 51 S 6 9 29.87 1012 10 16.0934 0 0
6:54 pm 18:54 Sunny 93 33.9 74 23.3 54 54 SE 7 11 29.86 1011 10 16.0934 0 0
7:54 pm 19:54 Sunny 92 33.3 75 23.9 58 58 SE 7 11 29.84 1011 10 16.0934 0 0
8:54 pm 20:54 Sunny 91 32.8 73 22.8 56 56 SSE 13 20 29.83 1010 10 16.0934 0 0
9:54 pm 21:54 Clear 88 31.1 71 21.7 57 57 SE 10 17 29.84 1011 10 16.0934 0 0
10:54 pm 22:54 Clear 85 29.4 71 21.7 63 63 SSE 8 13 29.84 1011 10 16.0934 0 0
11:54 pm 23:54 Clear 82 27.8 71 21.7 69 69 S 8 13 29.84 1011 10 16.0934 0 0

Powered by AerisWeather